Location: Amanico Ergina Village
(37.7824°N, 122.4366°W)
Time: 08:25:56
(UTC+00:00)

SL-14 R/B - Pass Details

Date: 29 October 2020
Orbit: 517 x 555 km, 82.4° (Epoch: 02 December)

Event Time Altitude Azimuth Distance (km) Brightness Sun altitude
Exits shadow 13:02:25 33° 318° (NW) 935 4.1 -18.3°
Drops below altitude 10° 13:05:11 10° 352° (N) 1,835 5.9 -17.8°
Sets 13:07:29 0° 360° (N) 2,738 6.8 -17.4°
